User: anonymous   Login
Location: Eppenbrunn
(49.1158°N, 7.5601°E)
Time: 00:06:49
(UTC+00:00)
Language:

SL-16 R/B - Orbit

View from above orbital plane
View from above orbital plane
View from above satellite
View from above satellite

Ground track
Ground track

The orbit data is extracted from the following two-line orbital elements,

1 31793U 07029B   20188.53009324  .00000000  00000-0  25070-4 0  9994
2 31793  70.9749 206.2874 0002786 270.2249 246.7331 14.14436374672423
Epoch (UTC): 06 July 2020 12:43:20
Eccentricity: 0.0002786
inclination: 70.9749°
perigee height: 842 km
apogee height: 846 km
right ascension of ascending node: 206.2874°
argument of perigee: 270.2249°
revolutions per day: 14.14436374
mean anomaly at epoch: 246.7331°
orbit number at epoch: 67242

The dashed part of the orbit path shows where the satellite is in the earth's shadow,  

DLR